Time,TemperatureF,DewpointF,PressureIn,WindDirection,WindDirectionDegrees,WindSpeedMPH,WindSpeedGustMPH,Humidity,HourlyPrecipIn,Conditions,Clouds,dailyrainin,SoftwareType,DateUTC
2013-08-12 00:00:00,54.1,51.8,30.05,SW,215,0.0,0.0,92,0.00,,,0.00,WeatherCatV1.20B785,2013-08-12 04:00:00,
2013-08-12 00:01:00,54.1,51.8,30.05,SW,215,0.0,0.0,92,0.00,,,0.00,WeatherCatV1.20B785,2013-08-12 04:01:00,
2013-08-12 00:02:00,54.1,51.8,30.05,SW,215,0.0,0.0,92,0.00,,,0.00,WeatherCatV1.20B785,2013-08-12 04:02:00,
2013-08-12 00:03:00,54.1,51.8,30.05,SW,215,0.0,0.0,92,0.00,,,0.00,WeatherCatV1.20B785,2013-08-12 04:03:00,
2013-08-12 00:05:00,54.1,51.8,30.05,SW,214,0.0,0.0,92,0.00,,,0.00,WeatherCatV1.20B785,2013-08-12 04:05:00,
2013-08-12 00:06:00,54.1,51.8,30.05,SW,215,0.0,0.0,92,0.00,,,0.00,WeatherCatV1.20B785,2013-08-12 04:06:00,
2013-08-12 00:07:00,54.1,51.8,30.05,SW,215,0.0,0.0,92,0.00,,,0.00,WeatherCatV1.20B785,2013-08-12 04:07:00,
2013-08-12 00:10:00,54.0,51.7,30.05,SW,215,0.0,0.0,92,0.00,,,0.00,WeatherCatV1.20B785,2013-08-12 04:10:00,
2013-08-12 00:12:00,54.0,51.7,30.05,SW,215,0.0,0.0,92,0.00,,,0.00,WeatherCatV1.20B785,2013-08-12 04:12:00,
2013-08-12 00:15:00,53.9,51.6,30.05,SW,215,0.0,0.0,92,0.00,,,0.00,WeatherCatV1.20B785,2013-08-12 04:15:00,
2013-08-12 00:17:00,53.9,51.6,30.06,SW,215,0.0,0.0,92,0.00,,,0.00,WeatherCatV1.20B785,2013-08-12 04:17:00,
2013-08-12 00:20:00,53.8,51.5,30.05,SW,215,0.0,0.0,92,0.00,,,0.00,WeatherCatV1.20B785,2013-08-12 04:20:00,
2013-08-12 00:22:00,53.8,51.5,30.05,SW,215,0.0,0.0,92,0.00,,,0.00,WeatherCatV1.20B785,2013-08-12 04:22:00,
2013-08-12 00:25:00,53.7,51.4,30.06,SW,215,0.0,0.0,92,0.00,,,0.00,WeatherCatV1.20B785,2013-08-12 04:25:00,
2013-08-12 00:27:00,53.7,51.4,30.05,SW,215,0.0,0.0,92,0.00,,,0.00,WeatherCatV1.20B785,2013-08-12 04:27:00,
2013-08-12 00:30:00,53.8,51.5,30.06,SW,215,0.0,0.0,92,0.00,,,0.00,WeatherCatV1.20B785,2013-08-12 04:30:00,
2013-08-12 00:32:00,53.8,51.5,30.06,SW,216,0.0,0.0,92,0.00,,,0.00,WeatherCatV1.20B785,2013-08-12 04:32:00,
2013-08-12 00:35:00,53.8,51.5,30.05,SW,215,0.0,0.0,92,0.00,,,0.00,WeatherCatV1.20B785,2013-08-12 04:35:00,
2013-08-12 00:37:00,53.8,51.5,30.05,SW,215,0.0,0.0,92,0.00,,,0.00,WeatherCatV1.20B785,2013-08-12 04:37:00,
2013-08-12 00:40:00,53.7,51.4,30.06,SW,215,0.0,0.0,92,0.00,,,0.00,WeatherCatV1.20B785,2013-08-12 04:40:00,
2013-08-12 00:42:00,53.6,51.3,30.06,SW,215,0.0,0.0,92,0.00,,,0.00,WeatherCatV1.20B785,2013-08-12 04:42:00,
2013-08-12 00:45:00,53.6,51.3,30.05,SW,215,0.0,0.0,92,0.00,,,0.00,WeatherCatV1.20B785,2013-08-12 04:45:00,
2013-08-12 00:47:00,53.6,51.3,30.05,SW,215,0.0,0.0,92,0.00,,,0.00,WeatherCatV1.20B785,2013-08-12 04:47:00,
2013-08-12 00:50:00,53.8,51.5,30.05,SSW,212,0.0,1.0,92,0.00,,,0.00,WeatherCatV1.20B785,2013-08-12 04:50:00,
2013-08-12 00:52:00,53.8,51.5,30.05,SSW,200,1.0,1.0,92,0.00,,,0.00,WeatherCatV1.20B785,2013-08-12 04:52:00,
2013-08-12 00:55:00,54.1,51.8,30.05,SSW,207,0.0,0.0,92,0.00,,,0.00,WeatherCatV1.20B785,2013-08-12 04:55:00,
2013-08-12 00:57:00,54.1,51.8,30.05,SSW,207,0.0,0.0,92,0.00,,,0.00,WeatherCatV1.20B785,2013-08-12 04:57:00,
2013-08-12 01:00:00,54.1,51.8,30.06,SSW,207,0.0,0.0,92,0.00,,,0.00,WeatherCatV1.20B785,2013-08-12 05:00:00,
2013-08-12 01:02:00,54.0,51.7,30.06,SSW,207,0.0,0.0,92,0.00,,,0.00,WeatherCatV1.20B785,2013-08-12 05:02:00,
2013-08-12 01:05:00,54.0,51.7,30.05,SSW,207,0.0,0.0,92,0.00,,,0.00,WeatherCatV1.20B785,2013-08-12 05:05:00,
2013-08-12 01:07:00,53.9,51.6,30.05,SSW,207,0.0,0.0,92,0.00,,,0.00,WeatherCatV1.20B785,2013-08-12 05:07:00,
2013-08-12 01:10:00,53.7,51.4,30.05,SSW,207,0.0,0.0,92,0.00,,,0.00,WeatherCatV1.20B785,2013-08-12 05:10:00,
2013-08-12 01:12:00,53.7,51.4,30.05,SSW,207,0.0,0.0,92,0.00,,,0.00,WeatherCatV1.20B785,2013-08-12 05:12:00,
2013-08-12 01:15:00,53.5,51.2,30.05,SSW,207,0.0,0.0,92,0.00,,,0.00,WeatherCatV1.20B785,2013-08-12 05:15:00,
2013-08-12 01:17:00,53.5,51.2,30.05,SSW,207,0.0,0.0,92,0.00,,,0.00,WeatherCatV1.20B785,2013-08-12 05:17:00,
2013-08-12 01:20:00,53.4,51.1,30.05,SSW,207,0.0,0.0,92,0.00,,,0.00,WeatherCatV1.20B785,2013-08-12 05:20:00,
2013-08-12 01:22:00,53.4,51.1,30.05,SSW,207,0.0,0.0,92,0.00,,,0.00,WeatherCatV1.20B785,2013-08-12 05:22:00,
2013-08-12 01:25:00,53.5,51.2,30.05,SSW,207,0.0,0.0,92,0.00,,,0.00,WeatherCatV1.20B785,2013-08-12 05:25:00,
2013-08-12 01:27:00,53.6,51.3,30.05,SSW,207,0.0,0.0,92,0.00,,,0.00,WeatherCatV1.20B785,2013-08-12 05:27:00,
2013-08-12 01:30:00,53.7,51.4,30.05,SSW,207,0.0,0.0,92,0.00,,,0.00,WeatherCatV1.20B785,2013-08-12 05:30:00,
2013-08-12 01:32:00,53.7,51.4,30.05,SSW,207,0.0,0.0,92,0.00,,,0.00,WeatherCatV1.20B785,2013-08-12 05:32:00,
2013-08-12 01:35:00,53.7,51.4,30.05,SSW,207,0.0,0.0,92,0.00,,,0.00,WeatherCatV1.20B785,2013-08-12 05:35:00,
2013-08-12 01:37:00,53.6,51.3,30.05,SSW,207,0.0,0.0,92,0.00,,,0.00,WeatherCatV1.20B785,2013-08-12 05:37:00,
2013-08-12 01:40:00,53.6,51.3,30.05,SSW,207,0.0,0.0,92,0.00,,,0.00,WeatherCatV1.20B785,2013-08-12 05:40:00,
2013-08-12 01:42:00,53.6,51.3,30.05,SSW,207,0.0,0.0,92,0.00,,,0.00,WeatherCatV1.20B785,2013-08-12 05:42:00,
2013-08-12 01:45:00,53.5,51.2,30.05,SSW,207,0.0,0.0,92,0.00,,,0.00,WeatherCatV1.20B785,2013-08-12 05:45:00,
2013-08-12 01:47:00,53.5,51.2,30.05,SSW,207,0.0,0.0,92,0.00,,,0.00,WeatherCatV1.20B785,2013-08-12 05:47:00,
2013-08-12 01:50:00,53.5,51.2,30.05,SSW,207,0.0,0.0,92,0.00,,,0.00,WeatherCatV1.20B785,2013-08-12 05:50:00,
2013-08-12 01:52:00,53.5,51.2,30.05,SSW,207,0.0,0.0,92,0.00,,,0.00,WeatherCatV1.20B785,2013-08-12 05:52:00,
2013-08-12 01:55:00,53.6,51.3,30.05,SSW,207,0.0,0.0,92,0.00,,,0.00,WeatherCatV1.20B785,2013-08-12 05:55:00,
2013-08-12 01:57:00,53.6,51.3,30.05,SSW,207,0.0,0.0,92,0.00,,,0.00,WeatherCatV1.20B785,2013-08-12 05:57:00,
2013-08-12 02:00:00,53.6,51.3,30.05,SSW,207,0.0,0.0,92,0.00,,,0.00,WeatherCatV1.20B785,2013-08-12 06:00:00,
2013-08-12 02:02:00,53.6,51.3,30.05,SSW,207,0.0,0.0,92,0.00,,,0.00,WeatherCatV1.20B785,2013-08-12 06:02:00,
2013-08-12 02:05:00,53.6,51.3,30.05,SSW,207,0.0,0.0,92,0.00,,,0.00,WeatherCatV1.20B785,2013-08-12 06:05:00,
2013-08-12 02:08:00,53.7,51.4,30.05,SSW,207,0.0,0.0,92,0.00,,,0.00,WeatherCatV1.20B785,2013-08-12 06:08:00,
2013-08-12 02:10:00,53.7,51.4,30.05,SSW,207,0.0,0.0,92,0.00,,,0.00,WeatherCatV1.20B785,2013-08-12 06:10:00,
2013-08-12 02:13:00,53.7,51.4,30.05,SSW,207,0.0,0.0,92,0.00,,,0.00,WeatherCatV1.20B785,2013-08-12 06:13:00,
2013-08-12 02:15:00,53.7,51.4,30.04,SSW,207,0.0,0.0,92,0.00,,,0.00,WeatherCatV1.20B785,2013-08-12 06:15:00,
2013-08-12 02:18:00,53.8,51.5,30.04,SSW,207,0.0,0.0,92,0.00,,,0.00,WeatherCatV1.20B785,2013-08-12 06:18:00,
2013-08-12 02:20:00,53.8,51.5,30.04,SSW,207,0.0,0.0,92,0.00,,,0.00,WeatherCatV1.20B785,2013-08-12 06:20:00,
2013-08-12 02:23:00,53.9,51.6,30.04,SSW,207,0.0,0.0,92,0.00,,,0.00,WeatherCatV1.20B785,2013-08-12 06:23:00,
2013-08-12 02:25:00,54.1,51.8,30.04,SSW,207,0.0,0.0,92,0.00,,,0.00,WeatherCatV1.20B785,2013-08-12 06:25:00,
2013-08-12 02:28:00,54.1,51.8,30.04,SSW,207,0.0,0.0,92,0.00,,,0.00,WeatherCatV1.20B785,2013-08-12 06:28:00,
2013-08-12 02:30:00,54.2,51.9,30.04,SSW,207,0.0,0.0,92,0.00,,,0.00,WeatherCatV1.20B785,2013-08-12 06:30:00,
2013-08-12 02:33:00,54.3,52.0,30.04,SSW,207,0.0,0.0,92,0.00,,,0.00,WeatherCatV1.20B785,2013-08-12 06:33:00,
2013-08-12 02:35:00,54.3,52.0,30.04,SSW,207,0.0,0.0,92,0.00,,,0.00,WeatherCatV1.20B785,2013-08-12 06:35:00,
2013-08-12 02:38:00,54.4,52.1,30.04,SSW,207,0.0,0.0,92,0.00,,,0.00,WeatherCatV1.20B785,2013-08-12 06:38:00,
2013-08-12 02:40:00,54.4,52.1,30.04,SSW,207,0.0,0.0,92,0.00,,,0.00,WeatherCatV1.20B785,2013-08-12 06:40:00,
2013-08-12 02:43:00,54.5,52.2,30.04,SSW,207,0.0,0.0,92,0.00,,,0.00,WeatherCatV1.20B785,2013-08-12 06:43:00,
2013-08-12 02:45:00,54.5,52.2,30.04,SSW,207,0.0,0.0,92,0.00,,,0.00,WeatherCatV1.20B785,2013-08-12 06:45:00,
2013-08-12 02:48:00,54.6,52.3,30.04,SSW,207,0.0,0.0,92,0.00,,,0.00,WeatherCatV1.20B785,2013-08-12 06:48:00,
2013-08-12 02:50:00,54.7,52.4,30.04,SSW,207,0.0,0.0,92,0.00,,,0.00,WeatherCatV1.20B785,2013-08-12 06:50:00,
2013-08-12 02:53:00,54.7,52.4,30.04,SSW,207,0.0,0.0,92,0.00,,,0.00,WeatherCatV1.20B785,2013-08-12 06:53:00,
2013-08-12 02:55:00,54.8,52.5,30.04,SSW,207,0.0,0.0,92,0.00,,,0.00,WeatherCatV1.20B785,2013-08-12 06:55:00,
2013-08-12 02:58:00,54.8,52.5,30.04,SSW,207,0.0,0.0,92,0.00,,,0.00,WeatherCatV1.20B785,2013-08-12 06:58:00,
2013-08-12 03:00:00,54.8,52.5,30.04,SSW,207,0.0,0.0,92,0.00,,,0.00,WeatherCatV1.20B785,2013-08-12 07:00:00,
2013-08-12 03:03:00,54.9,52.6,30.04,SSW,207,0.0,0.0,92,0.00,,,0.00,WeatherCatV1.20B785,2013-08-12 07:03:00,
2013-08-12 03:05:00,54.9,52.6,30.04,SSW,207,0.0,0.0,92,0.00,,,0.00,WeatherCatV1.20B785,2013-08-12 07:05:00,
2013-08-12 03:08:00,55.0,52.7,30.03,SSW,207,0.0,0.0,92,0.00,,,0.00,WeatherCatV1.20B785,2013-08-12 07:08:00,
2013-08-12 03:10:00,55.0,52.7,30.03,SSW,207,0.0,0.0,92,0.00,,,0.00,WeatherCatV1.20B785,2013-08-12 07:10:00,
2013-08-12 03:13:00,55.1,52.8,30.03,SSW,207,0.0,0.0,92,0.00,,,0.00,WeatherCatV1.20B785,2013-08-12 07:13:00,
2013-08-12 03:15:00,55.1,52.8,30.03,SSW,207,0.0,0.0,92,0.00,,,0.00,WeatherCatV1.20B785,2013-08-12 07:15:00,
2013-08-12 03:18:00,55.1,52.8,30.03,SSW,207,0.0,0.0,92,0.00,,,0.00,WeatherCatV1.20B785,2013-08-12 07:18:00,
2013-08-12 03:20:00,55.1,52.8,30.03,SSW,207,0.0,0.0,92,0.00,,,0.00,WeatherCatV1.20B785,2013-08-12 07:20:00,
2013-08-12 03:23:00,55.0,52.7,30.03,SSW,207,0.0,0.0,92,0.00,,,0.00,WeatherCatV1.20B785,2013-08-12 07:23:00,
2013-08-12 03:25:00,55.0,52.7,30.03,SSW,207,0.0,0.0,92,0.00,,,0.00,WeatherCatV1.20B785,2013-08-12 07:25:00,
2013-08-12 03:28:00,55.0,52.7,30.03,SSW,207,0.0,0.0,92,0.00,,,0.00,WeatherCatV1.20B785,2013-08-12 07:28:00,
2013-08-12 03:30:00,55.0,52.7,30.03,SSW,207,0.0,0.0,92,0.00,,,0.00,WeatherCatV1.20B785,2013-08-12 07:30:00,
2013-08-12 03:33:00,55.1,52.8,30.03,SSW,207,0.0,0.0,92,0.00,,,0.00,WeatherCatV1.20B785,2013-08-12 07:33:00,
2013-08-12 03:35:00,55.2,52.9,30.03,SSW,207,0.0,0.0,92,0.00,,,0.00,WeatherCatV1.20B785,2013-08-12 07:35:00,
2013-08-12 03:38:00,55.3,53.0,30.03,SSW,207,0.0,0.0,92,0.00,,,0.00,WeatherCatV1.20B785,2013-08-12 07:38:00,
2013-08-12 03:40:00,55.3,53.0,30.03,SSW,207,0.0,0.0,92,0.00,,,0.00,WeatherCatV1.20B785,2013-08-12 07:40:00,
2013-08-12 03:43:00,55.4,53.1,30.03,SSW,207,0.0,0.0,92,0.00,,,0.00,WeatherCatV1.20B785,2013-08-12 07:43:00,
2013-08-12 03:45:00,55.4,53.1,30.03,SSW,207,0.0,0.0,92,0.00,,,0.00,WeatherCatV1.20B785,2013-08-12 07:45:00,
2013-08-12 03:48:00,55.4,53.1,30.03,SSW,207,0.0,0.0,92,0.00,,,0.00,WeatherCatV1.20B785,2013-08-12 07:48:00,
2013-08-12 03:50:00,55.5,53.2,30.03,SSW,207,0.0,0.0,92,0.00,,,0.00,WeatherCatV1.20B785,2013-08-12 07:50:00,
2013-08-12 03:53:00,55.5,53.2,30.03,SSW,207,0.0,0.0,92,0.00,,,0.00,WeatherCatV1.20B785,2013-08-12 07:53:00,
2013-08-12 03:55:00,55.5,53.2,30.03,SSW,207,0.0,0.0,92,0.00,,,0.00,WeatherCatV1.20B785,2013-08-12 07:55:00,
2013-08-12 03:58:00,55.5,53.2,30.03,SSW,207,0.0,0.0,92,0.00,,,0.00,WeatherCatV1.20B785,2013-08-12 07:58:00,
2013-08-12 04:00:00,55.4,53.1,30.03,SSW,207,0.0,0.0,92,0.00,,,0.00,WeatherCatV1.20B785,2013-08-12 08:00:00,
2013-08-12 04:03:00,55.4,53.1,30.03,SSW,207,0.0,0.0,92,0.00,,,0.00,WeatherCatV1.20B785,2013-08-12 08:03:00,
2013-08-12 04:05:00,55.3,53.0,30.03,SSW,207,0.0,0.0,92,0.00,,,0.00,WeatherCatV1.20B785,2013-08-12 08:05:00,
2013-08-12 04:08:00,55.4,53.1,30.03,SSW,207,0.0,0.0,92,0.00,,,0.00,WeatherCatV1.20B785,2013-08-12 08:08:00,
2013-08-12 04:10:00,55.5,53.2,30.03,SSW,207,0.0,0.0,92,0.00,,,0.00,WeatherCatV1.20B785,2013-08-12 08:10:00,
2013-08-12 04:13:00,55.5,53.2,30.03,SSW,207,0.0,0.0,92,0.00,,,0.00,WeatherCatV1.20B785,2013-08-12 08:13:00,
2013-08-12 04:15:00,55.5,53.2,30.03,SSW,207,0.0,0.0,92,0.00,,,0.00,WeatherCatV1.20B785,2013-08-12 08:15:00,
2013-08-12 04:18:00,55.5,53.2,30.03,SSW,207,0.0,0.0,92,0.00,,,0.00,WeatherCatV1.20B785,2013-08-12 08:18:00,
2013-08-12 04:20:00,55.5,53.2,30.03,SSW,207,0.0,0.0,92,0.00,,,0.00,WeatherCatV1.20B785,2013-08-12 08:20:00,
2013-08-12 04:23:00,55.5,53.2,30.03,SSW,207,0.0,0.0,92,0.00,,,0.00,WeatherCatV1.20B785,2013-08-12 08:23:00,
2013-08-12 04:25:00,55.5,53.2,30.03,SSW,207,0.0,0.0,92,0.00,,,0.00,WeatherCatV1.20B785,2013-08-12 08:25:00,
2013-08-12 04:28:00,55.5,53.2,30.03,SSW,207,0.0,0.0,92,0.00,,,0.00,WeatherCatV1.20B785,2013-08-12 08:28:00,
2013-08-12 04:30:00,55.5,53.2,30.03,SSW,207,0.0,0.0,92,0.00,,,0.00,WeatherCatV1.20B785,2013-08-12 08:30:00,
2013-08-12 04:33:00,55.4,53.1,30.03,SSW,207,0.0,0.0,92,0.00,,,0.00,WeatherCatV1.20B785,2013-08-12 08:33:00,
2013-08-12 04:35:00,55.3,53.0,30.03,SSW,207,0.0,0.0,92,0.00,,,0.00,WeatherCatV1.20B785,2013-08-12 08:35:00,
2013-08-12 04:38:00,55.3,53.0,30.03,SSW,207,0.0,0.0,92,0.00,,,0.00,WeatherCatV1.20B785,2013-08-12 08:38:00,
2013-08-12 04:40:00,55.3,53.0,30.03,SSW,207,0.0,0.0,92,0.00,,,0.00,WeatherCatV1.20B785,2013-08-12 08:40:00,
2013-08-12 04:43:00,55.1,52.8,30.03,SSW,207,0.0,0.0,92,0.00,,,0.00,WeatherCatV1.20B785,2013-08-12 08:43:00,
2013-08-12 04:45:00,55.0,52.7,30.03,SSW,207,0.0,0.0,92,0.00,,,0.00,WeatherCatV1.20B785,2013-08-12 08:45:00,
2013-08-12 04:48:00,54.9,52.6,30.03,SSW,207,0.0,0.0,92,0.00,,,0.00,WeatherCatV1.20B785,2013-08-12 08:48:00,
2013-08-12 04:50:00,54.8,52.5,30.03,SSW,207,0.0,0.0,92,0.00,,,0.00,WeatherCatV1.20B785,2013-08-12 08:50:00,
2013-08-12 04:53:00,54.6,52.3,30.03,SSW,207,0.0,0.0,92,0.00,,,0.00,WeatherCatV1.20B785,2013-08-12 08:53:00,
2013-08-12 04:55:00,54.5,52.2,30.03,SSW,207,0.0,0.0,92,0.00,,,0.00,WeatherCatV1.20B785,2013-08-12 08:55:00,
2013-08-12 04:58:00,54.4,52.1,30.03,SSW,207,0.0,0.0,92,0.00,,,0.00,WeatherCatV1.20B785,2013-08-12 08:58:00,
2013-08-12 05:00:00,54.4,52.1,30.03,SSW,207,0.0,0.0,92,0.00,,,0.00,WeatherCatV1.20B785,2013-08-12 09:00:00,
2013-08-12 05:03:00,54.3,52.0,30.02,SSW,207,0.0,0.0,92,0.00,,,0.00,WeatherCatV1.20B785,2013-08-12 09:03:00,
2013-08-12 05:05:00,54.3,52.0,30.02,SSW,207,0.0,0.0,92,0.00,,,0.00,WeatherCatV1.20B785,2013-08-12 09:05:00,
2013-08-12 05:08:00,54.4,52.4,30.03,SSW,207,0.0,0.0,93,0.00,,,0.00,WeatherCatV1.20B785,2013-08-12 09:08:00,
2013-08-12 05:10:00,54.5,52.5,30.02,SSW,207,0.0,0.0,93,0.00,,,0.00,WeatherCatV1.20B785,2013-08-12 09:10:00,
2013-08-12 05:13:00,54.6,52.6,30.02,SSW,207,0.0,0.0,93,0.00,,,0.00,WeatherCatV1.20B785,2013-08-12 09:13:00,
2013-08-12 05:15:00,54.6,52.6,30.02,SSW,207,0.0,0.0,93,0.00,,,0.00,WeatherCatV1.20B785,2013-08-12 09:15:00,
2013-08-12 05:18:00,54.7,52.7,30.03,SSW,207,0.0,0.0,93,0.00,,,0.00,WeatherCatV1.20B785,2013-08-12 09:18:00,
2013-08-12 05:20:00,54.7,52.7,30.02,SSW,207,0.0,0.0,93,0.00,,,0.00,WeatherCatV1.20B785,2013-08-12 09:20:00,
2013-08-12 05:23:00,54.7,52.7,30.02,SSW,207,0.0,0.0,93,0.00,,,0.00,WeatherCatV1.20B785,2013-08-12 09:23:00,
2013-08-12 05:25:00,54.7,52.7,30.02,SSW,207,0.0,0.0,93,0.00,,,0.00,WeatherCatV1.20B785,2013-08-12 09:25:00,
2013-08-12 05:28:00,54.8,52.8,30.02,SSW,207,0.0,0.0,93,0.00,,,0.00,WeatherCatV1.20B785,2013-08-12 09:28:00,
2013-08-12 05:30:00,54.9,52.9,30.02,SSW,207,0.0,0.0,93,0.00,,,0.00,WeatherCatV1.20B785,2013-08-12 09:30:00,
2013-08-12 05:33:00,54.9,52.9,30.02,SSW,207,0.0,0.0,93,0.00,,,0.00,WeatherCatV1.20B785,2013-08-12 09:33:00,
2013-08-12 05:35:00,55.0,53.0,30.02,SSW,207,0.0,0.0,93,0.00,,,0.00,WeatherCatV1.20B785,2013-08-12 09:35:00,
2013-08-12 05:38:00,55.1,53.1,30.02,SSW,207,0.0,0.0,93,0.00,,,0.00,WeatherCatV1.20B785,2013-08-12 09:38:00,
2013-08-12 05:40:00,55.2,53.2,30.02,SSW,207,0.0,0.0,93,0.00,,,0.00,WeatherCatV1.20B785,2013-08-12 09:40:00,
2013-08-12 05:43:00,55.3,53.3,30.02,SSW,207,0.0,0.0,93,0.00,,,0.00,WeatherCatV1.20B785,2013-08-12 09:43:00,
2013-08-12 05:45:00,55.5,53.5,30.02,SSW,207,0.0,0.0,93,0.00,,,0.00,WeatherCatV1.20B785,2013-08-12 09:45:00,
2013-08-12 05:48:00,55.5,53.5,30.02,SSW,207,0.0,0.0,93,0.00,,,0.00,WeatherCatV1.20B785,2013-08-12 09:48:00,
2013-08-12 05:50:00,55.6,53.6,30.02,SSW,207,0.0,0.0,93,0.00,,,0.00,WeatherCatV1.20B785,2013-08-12 09:50:00,
2013-08-12 05:53:00,55.6,53.6,30.02,SSW,207,0.0,0.0,93,0.00,,,0.00,WeatherCatV1.20B785,2013-08-12 09:53:00,
2013-08-12 05:55:00,55.7,53.7,30.02,SSW,207,0.0,0.0,93,0.00,,,0.00,WeatherCatV1.20B785,2013-08-12 09:55:00,
2013-08-12 05:58:00,55.7,53.7,30.02,SSW,207,0.0,0.0,93,0.00,,,0.00,WeatherCatV1.20B785,2013-08-12 09:58:00,
2013-08-12 06:00:00,55.7,53.7,30.02,SSW,207,0.0,0.0,93,0.00,,,0.00,WeatherCatV1.20B785,2013-08-12 10:00:00,
2013-08-12 06:03:00,55.7,53.7,30.02,SSW,207,0.0,0.0,93,0.00,,,0.00,WeatherCatV1.20B785,2013-08-12 10:03:00,
2013-08-12 06:05:00,55.7,53.7,30.02,SSW,207,0.0,0.0,93,0.00,,,0.00,WeatherCatV1.20B785,2013-08-12 10:05:00,
2013-08-12 06:08:00,55.7,53.7,30.03,SSW,207,0.0,0.0,93,0.00,,,0.00,WeatherCatV1.20B785,2013-08-12 10:08:00,
2013-08-12 06:10:00,55.8,53.8,30.03,SSW,207,0.0,0.0,93,0.00,,,0.00,WeatherCatV1.20B785,2013-08-12 10:10:00,
2013-08-12 06:13:00,55.8,53.8,30.03,SSW,207,0.0,0.0,93,0.00,,,0.00,WeatherCatV1.20B785,2013-08-12 10:13:00,
2013-08-12 06:15:00,55.9,53.9,30.03,SSW,207,0.0,0.0,93,0.00,,,0.00,WeatherCatV1.20B785,2013-08-12 10:15:00,
2013-08-12 06:18:00,55.9,53.9,30.03,SSW,207,0.0,0.0,93,0.00,,,0.00,WeatherCatV1.20B785,2013-08-12 10:18:00,
2013-08-12 06:20:00,55.9,53.9,30.03,SSW,207,0.0,0.0,93,0.00,,,0.00,WeatherCatV1.20B785,2013-08-12 10:20:00,
2013-08-12 06:23:00,55.9,53.9,30.02,SSW,207,0.0,0.0,93,0.00,,,0.00,WeatherCatV1.20B785,2013-08-12 10:23:00,
2013-08-12 06:25:00,55.9,53.9,30.03,SSW,207,0.0,0.0,93,0.00,,,0.00,WeatherCatV1.20B785,2013-08-12 10:25:00,
2013-08-12 06:28:00,55.9,53.9,30.03,SSW,207,0.0,0.0,93,0.00,,,0.00,WeatherCatV1.20B785,2013-08-12 10:28:00,
2013-08-12 06:30:00,55.9,53.9,30.03,SSW,207,0.0,0.0,93,0.00,,,0.00,WeatherCatV1.20B785,2013-08-12 10:30:00,
2013-08-12 06:33:00,56.0,54.0,30.03,SSW,207,0.0,0.0,93,0.00,,,0.00,WeatherCatV1.20B785,2013-08-12 10:33:00,
2013-08-12 06:35:00,56.0,54.0,30.03,SSW,207,0.0,0.0,93,0.00,,,0.00,WeatherCatV1.20B785,2013-08-12 10:35:00,
2013-08-12 06:38:00,56.1,54.1,30.02,SSW,207,0.0,0.0,93,0.00,,,0.00,WeatherCatV1.20B785,2013-08-12 10:38:00,
2013-08-12 06:40:00,56.0,54.0,30.02,SSW,207,0.0,0.0,93,0.00,,,0.00,WeatherCatV1.20B785,2013-08-12 10:40:00,
2013-08-12 06:43:00,56.1,54.1,30.03,SSW,207,0.0,0.0,93,0.00,,,0.00,WeatherCatV1.20B785,2013-08-12 10:43:00,
2013-08-12 06:45:00,56.2,54.2,30.03,SSW,207,0.0,0.0,93,0.00,,,0.00,WeatherCatV1.20B785,2013-08-12 10:45:00,
2013-08-12 06:48:00,56.2,54.2,30.03,SSW,207,0.0,0.0,93,0.00,,,0.00,WeatherCatV1.20B785,2013-08-12 10:48:00,
2013-08-12 06:50:00,56.2,54.2,30.03,SSW,207,0.0,0.0,93,0.00,,,0.00,WeatherCatV1.20B785,2013-08-12 10:50:00,
2013-08-12 06:53:00,56.3,54.3,30.03,SSW,207,0.0,0.0,93,0.00,,,0.00,WeatherCatV1.20B785,2013-08-12 10:53:00,
2013-08-12 06:55:00,56.3,54.3,30.03,SSW,207,0.0,0.0,93,0.00,,,0.00,WeatherCatV1.20B785,2013-08-12 10:55:00,
2013-08-12 06:58:00,56.3,54.3,30.03,SSW,207,0.0,0.0,93,0.00,,,0.00,WeatherCatV1.20B785,2013-08-12 10:58:00,
2013-08-12 07:00:00,56.4,54.4,30.02,SSW,207,0.0,0.0,93,0.00,,,0.00,WeatherCatV1.20B785,2013-08-12 11:00:00,
2013-08-12 07:03:00,56.5,54.5,30.02,SSW,207,0.0,0.0,93,0.00,,,0.00,WeatherCatV1.20B785,2013-08-12 11:03:00,
2013-08-12 07:05:00,56.5,54.5,30.02,SSW,207,0.0,0.0,93,0.00,,,0.00,WeatherCatV1.20B785,2013-08-12 11:05:00,
2013-08-12 07:08:00,56.6,54.6,30.02,SSW,207,0.0,0.0,93,0.00,,,0.00,WeatherCatV1.20B785,2013-08-12 11:08:00,
2013-08-12 07:10:00,56.7,54.7,30.02,SSW,207,0.0,0.0,93,0.00,,,0.00,WeatherCatV1.20B785,2013-08-12 11:10:00,
2013-08-12 07:13:00,56.7,54.7,30.02,SSW,207,0.0,0.0,93,0.00,,,0.00,WeatherCatV1.20B785,2013-08-12 11:13:00,
2013-08-12 07:15:00,56.8,54.8,30.02,SSW,207,0.0,0.0,93,0.00,,,0.00,WeatherCatV1.20B785,2013-08-12 11:15:00,
2013-08-12 07:18:00,56.9,54.9,30.03,SSW,207,0.0,0.0,93,0.00,,,0.00,WeatherCatV1.20B785,2013-08-12 11:18:00,
2013-08-12 07:20:00,56.9,54.9,30.03,SSW,207,0.0,0.0,93,0.00,,,0.00,WeatherCatV1.20B785,2013-08-12 11:20:00,
2013-08-12 07:23:00,57.0,55.0,30.03,SSW,207,0.0,0.0,93,0.00,,,0.00,WeatherCatV1.20B785,2013-08-12 11:23:00,
2013-08-12 07:25:00,57.2,55.2,30.03,SSW,207,0.0,0.0,93,0.00,,,0.00,WeatherCatV1.20B785,2013-08-12 11:25:00,
2013-08-12 07:28:00,57.2,55.2,30.03,SSW,207,0.0,0.0,93,0.00,,,0.00,WeatherCatV1.20B785,2013-08-12 11:28:00,
2013-08-12 07:30:00,57.3,55.3,30.03,SSW,207,0.0,0.0,93,0.00,,,0.00,WeatherCatV1.20B785,2013-08-12 11:30:00,
2013-08-12 07:33:00,57.3,55.3,30.03,SSW,207,0.0,0.0,93,0.00,,,0.00,WeatherCatV1.20B785,2013-08-12 11:33:00,
2013-08-12 07:35:00,57.5,55.5,30.03,SSW,207,0.0,0.0,93,0.00,,,0.00,WeatherCatV1.20B785,2013-08-12 11:35:00,
2013-08-12 07:38:00,57.5,55.5,30.03,SSW,205,0.0,0.0,93,0.00,,,0.00,WeatherCatV1.20B785,2013-08-12 11:38:00,
2013-08-12 07:40:00,57.6,55.6,30.03,SSW,206,0.0,0.0,93,0.00,,,0.00,WeatherCatV1.20B785,2013-08-12 11:40:00,
2013-08-12 07:43:00,57.6,55.6,30.03,SSW,205,0.0,0.0,93,0.00,,,0.00,WeatherCatV1.20B785,2013-08-12 11:43:00,
2013-08-12 07:45:00,57.8,55.8,30.03,SSW,205,0.0,0.0,93,0.00,,,0.00,WeatherCatV1.20B785,2013-08-12 11:45:00,
2013-08-12 07:48:00,57.8,55.8,30.03,SSW,205,0.0,0.0,93,0.00,,,0.00,WeatherCatV1.20B785,2013-08-12 11:48:00,
2013-08-12 07:50:00,58.0,56.0,30.03,SSW,205,0.0,0.0,93,0.00,,,0.00,WeatherCatV1.20B785,2013-08-12 11:50:00,
2013-08-12 07:53:00,58.1,56.1,30.03,SSW,205,0.0,0.0,93,0.00,,,0.00,WeatherCatV1.20B785,2013-08-12 11:53:00,
2013-08-12 07:55:00,58.2,56.2,30.03,SSW,205,0.0,0.0,93,0.00,,,0.00,WeatherCatV1.20B785,2013-08-12 11:55:00,
2013-08-12 07:58:00,58.2,56.2,30.03,SSW,205,0.0,0.0,93,0.00,,,0.00,WeatherCatV1.20B785,2013-08-12 11:58:00,
2013-08-12 08:00:00,58.2,56.2,30.03,SSW,205,0.0,0.0,93,0.00,,,0.00,WeatherCatV1.20B785,2013-08-12 12:00:00,
2013-08-12 08:03:00,58.3,56.3,30.03,SSW,205,0.0,0.0,93,0.00,,,0.00,WeatherCatV1.20B785,2013-08-12 12:03:00,
2013-08-12 08:05:00,58.5,56.5,30.03,SSW,205,0.0,0.0,93,0.00,,,0.00,WeatherCatV1.20B785,2013-08-12 12:05:00,
2013-08-12 08:08:00,58.6,56.6,30.03,SSW,205,0.0,0.0,93,0.00,,,0.00,WeatherCatV1.20B785,2013-08-12 12:08:00,
2013-08-12 08:10:00,58.6,56.6,30.03,SSW,205,0.0,0.0,93,0.00,,,0.00,WeatherCatV1.20B785,2013-08-12 12:10:00,
2013-08-12 08:13:00,58.6,56.6,30.03,SSW,205,0.0,0.0,93,0.00,,,0.00,WeatherCatV1.20B785,2013-08-12 12:13:00,
2013-08-12 08:15:00,58.7,56.7,30.03,SSW,205,0.0,0.0,93,0.00,,,0.00,WeatherCatV1.20B785,2013-08-12 12:15:00,
2013-08-12 08:18:00,58.8,56.8,30.03,SSW,205,0.0,0.0,93,0.00,,,0.00,WeatherCatV1.20B785,2013-08-12 12:18:00,
2013-08-12 08:20:00,58.9,56.9,30.03,SSW,205,0.0,0.0,93,0.00,,,0.00,WeatherCatV1.20B785,2013-08-12 12:20:00,
2013-08-12 08:23:00,59.1,57.1,30.03,SSW,205,0.0,0.0,93,0.00,,,0.00,WeatherCatV1.20B785,2013-08-12 12:23:00,
2013-08-12 08:25:00,59.1,57.1,30.03,SSW,205,0.0,0.0,93,0.00,,,0.00,WeatherCatV1.20B785,2013-08-12 12:25:00,
2013-08-12 08:28:00,59.3,57.3,30.03,SSE,155,0.0,0.0,93,0.00,,,0.00,WeatherCatV1.20B785,2013-08-12 12:28:00,
2013-08-12 08:30:00,59.4,57.4,30.02,South,180,0.0,0.0,93,0.00,,,0.00,WeatherCatV1.20B785,2013-08-12 12:30:00,
2013-08-12 08:33:00,59.6,57.6,30.02,SSE,153,0.0,0.0,93,0.00,,,0.00,WeatherCatV1.20B785,2013-08-12 12:33:00,
2013-08-12 08:35:00,59.7,57.7,30.02,SSE,163,0.0,1.0,93,0.00,,,0.00,WeatherCatV1.20B785,2013-08-12 12:35:00,
2013-08-12 08:38:00,59.9,57.9,30.02,SSE,160,0.0,1.0,93,0.00,,,0.00,WeatherCatV1.20B785,2013-08-12 12:38:00,
2013-08-12 08:40:00,60.1,58.1,30.01,SSE,161,0.0,1.0,93,0.00,,,0.00,WeatherCatV1.20B785,2013-08-12 12:40:00,
2013-08-12 08:43:00,60.3,58.3,30.02,SSE,160,0.0,1.0,93,0.00,,,0.00,WeatherCatV1.20B785,2013-08-12 12:43:00,
2013-08-12 08:45:00,60.6,58.6,30.02,SSE,160,0.0,0.0,93,0.00,,,0.00,WeatherCatV1.20B785,2013-08-12 12:45:00,
2013-08-12 08:48:00,61.2,59.2,30.02,SSE,158,0.0,0.0,93,0.00,,,0.00,WeatherCatV1.20B785,2013-08-12 12:48:00,
2013-08-12 08:50:00,61.4,59.4,30.02,SSE,150,0.0,2.0,93,0.00,,,0.00,WeatherCatV1.20B785,2013-08-12 12:50:00,
2013-08-12 08:53:00,61.5,59.2,30.02,SE,130,0.0,1.0,92,0.00,,,0.00,WeatherCatV1.20B785,2013-08-12 12:53:00,
2013-08-12 08:55:00,62.2,59.8,30.02,SE,135,0.0,1.0,92,0.00,,,0.00,WeatherCatV1.20B785,2013-08-12 12:55:00,
2013-08-12 08:58:00,62.5,60.1,30.02,SE,130,0.0,0.0,92,0.00,,,0.00,WeatherCatV1.20B785,2013-08-12 12:58:00,
2013-08-12 09:00:00,62.9,60.5,30.02,SE,130,0.0,1.0,92,0.00,,,0.00,WeatherCatV1.20B785,2013-08-12 13:00:00,
2013-08-12 09:03:00,63.1,60.4,30.02,ESE,121,0.0,1.0,91,0.00,,,0.00,WeatherCatV1.20B785,2013-08-12 13:03:00,
2013-08-12 09:05:00,63.3,60.6,30.02,SE,124,0.0,0.0,91,0.00,,,0.00,WeatherCatV1.20B785,2013-08-12 13:05:00,
2013-08-12 09:08:00,63.5,60.5,30.02,ESE,122,0.0,0.0,90,0.00,,,0.00,WeatherCatV1.20B785,2013-08-12 13:08:00,
2013-08-12 09:10:00,64.0,61.0,30.02,ESE,122,0.0,1.0,90,0.00,,,0.00,WeatherCatV1.20B785,2013-08-12 13:10:00,
2013-08-12 09:13:00,64.3,61.3,30.02,ESE,121,0.0,1.0,90,0.00,,,0.00,WeatherCatV1.20B785,2013-08-12 13:13:00,
2013-08-12 09:15:00,64.7,61.4,30.02,ESE,121,0.0,0.0,89,0.00,,,0.00,WeatherCatV1.20B785,2013-08-12 13:15:00,
2013-08-12 09:18:00,64.9,61.6,30.02,ESE,122,0.0,0.0,89,0.00,,,0.00,WeatherCatV1.20B785,2013-08-12 13:18:00,
2013-08-12 09:20:00,65.5,62.2,30.02,ESE,121,0.0,0.0,89,0.00,,,0.00,WeatherCatV1.20B785,2013-08-12 13:20:00,
2013-08-12 09:23:00,65.9,62.6,30.02,SE,124,0.0,0.0,89,0.00,,,0.00,WeatherCatV1.20B785,2013-08-12 13:23:00,
2013-08-12 09:25:00,66.6,62.9,30.01,SE,124,0.0,0.0,88,0.00,,,0.00,WeatherCatV1.20B785,2013-08-12 13:25:00,
2013-08-12 09:28:00,67.0,63.0,30.01,SE,126,0.0,1.0,87,0.00,,,0.00,WeatherCatV1.20B785,2013-08-12 13:28:00,
2013-08-12 09:30:00,67.4,63.1,30.01,ESE,118,0.0,2.0,86,0.00,,,0.00,WeatherCatV1.20B785,2013-08-12 13:30:00,
2013-08-12 09:33:00,67.4,63.1,30.00,ESE,113,1.0,2.0,86,0.00,,,0.00,WeatherCatV1.20B785,2013-08-12 13:33:00,
2013-08-12 09:35:00,67.6,63.2,30.01,ESE,115,0.0,1.0,86,0.00,,,0.00,WeatherCatV1.20B785,2013-08-12 13:35:00,
2013-08-12 09:38:00,67.7,63.0,30.01,SE,125,0.0,0.0,85,0.00,,,0.00,WeatherCatV1.20B785,2013-08-12 13:38:00,
2013-08-12 09:40:00,67.9,63.2,30.01,ESE,121,0.0,0.0,85,0.00,,,0.00,WeatherCatV1.20B785,2013-08-12 13:40:00,
2013-08-12 09:44:00,68.5,63.5,30.01,ESE,123,0.0,0.0,84,0.00,,,0.00,WeatherCatV1.20B785,2013-08-12 13:44:00,
2013-08-12 09:45:00,68.6,63.6,30.01,ESE,123,0.0,0.0,84,0.00,,,0.00,WeatherCatV1.20B785,2013-08-12 13:45:00,
2013-08-12 09:49:00,68.8,63.8,30.01,ESE,121,0.0,1.0,84,0.00,,,0.00,WeatherCatV1.20B785,2013-08-12 13:49:00,
2013-08-12 09:50:00,69.0,64.0,30.01,ESE,122,0.0,1.0,84,0.00,,,0.00,WeatherCatV1.20B785,2013-08-12 13:50:00,
2013-08-12 09:54:00,69.2,63.8,30.00,ESE,121,0.0,0.0,83,0.00,,,0.00,WeatherCatV1.20B785,2013-08-12 13:54:00,
2013-08-12 09:55:00,69.4,64.3,30.00,ESE,121,0.0,1.0,84,0.00,,,0.00,WeatherCatV1.20B785,2013-08-12 13:55:00,
2013-08-12 09:59:00,69.9,64.8,30.00,East,94,1.0,1.0,84,0.00,,,0.00,WeatherCatV1.20B785,2013-08-12 13:59:00,
2013-08-12 10:00:00,70.0,64.2,30.00,ESE,112,0.0,1.0,82,0.00,,,0.00,WeatherCatV1.20B785,2013-08-12 14:00:00,
2013-08-12 10:04:00,70.3,64.2,30.00,ENE,74,1.0,2.0,81,0.00,,,0.00,WeatherCatV1.20B785,2013-08-12 14:04:00,
2013-08-12 10:05:00,70.4,64.3,30.00,East,82,1.0,1.0,81,0.00,,,0.00,WeatherCatV1.20B785,2013-08-12 14:05:00,
2013-08-12 10:09:00,70.9,64.4,30.00,NNW,344,0.0,0.0,80,0.00,,,0.00,WeatherCatV1.20B785,2013-08-12 14:09:00,
2013-08-12 10:10:00,71.2,64.7,30.00,NNE,18,1.0,2.0,80,0.00,,,0.00,WeatherCatV1.20B785,2013-08-12 14:10:00,
2013-08-12 10:14:00,71.8,64.2,30.00,NNE,18,0.0,1.0,77,0.00,,,0.00,WeatherCatV1.20B785,2013-08-12 14:14:00,
2013-08-12 10:15:00,71.9,64.3,30.00,NNE,19,0.0,0.0,77,0.00,,,0.00,WeatherCatV1.20B785,2013-08-12 14:15:00,
2013-08-12 10:19:00,72.6,65.3,30.00,SW,224,1.0,2.0,78,0.00,,,0.00,WeatherCatV1.20B785,2013-08-12 14:19:00,
2013-08-12 10:20:00,72.8,65.5,30.00,NNW,335,1.0,1.0,78,0.00,,,0.00,WeatherCatV1.20B785,2013-08-12 14:20:00,
2013-08-12 10:24:00,73.3,64.1,30.00,West,281,3.0,3.0,73,0.00,,,0.00,WeatherCatV1.20B785,2013-08-12 14:24:00,
2013-08-12 10:25:00,73.3,63.7,30.00,West,268,1.0,2.0,72,0.00,,,0.00,WeatherCatV1.20B785,2013-08-12 14:25:00,
2013-08-12 10:29:00,73.3,63.3,30.00,WSW,238,0.0,6.0,71,0.00,,,0.00,WeatherCatV1.20B785,2013-08-12 14:29:00,
2013-08-12 10:30:00,73.3,62.5,30.00,WSW,240,1.0,1.0,69,0.00,,,0.00,WeatherCatV1.20B785,2013-08-12 14:30:00,
2013-08-12 10:34:00,73.1,62.7,30.00,West,280,0.0,3.0,70,0.00,,,0.00,WeatherCatV1.20B785,2013-08-12 14:34:00,
2013-08-12 10:35:00,72.9,62.9,30.00,West,259,1.0,3.0,71,0.00,,,0.00,WeatherCatV1.20B785,2013-08-12 14:35:00,
2013-08-12 10:39:00,72.7,63.5,30.00,West,267,0.0,2.0,73,0.00,,,0.00,WeatherCatV1.20B785,2013-08-12 14:39:00,
2013-08-12 10:40:00,72.7,63.5,30.00,West,259,1.0,2.0,73,0.00,,,0.00,WeatherCatV1.20B785,2013-08-12 14:40:00,
2013-08-12 10:44:00,72.8,63.2,30.01,SW,231,0.0,2.0,72,0.00,,,0.00,WeatherCatV1.20B785,2013-08-12 14:44:00,
2013-08-12 10:45:00,73.0,64.2,30.01,WSW,240,1.0,1.0,74,0.00,,,0.00,WeatherCatV1.20B785,2013-08-12 14:45:00,
2013-08-12 10:49:00,73.2,63.2,30.01,SSW,202,1.0,3.0,71,0.00,,,0.00,WeatherCatV1.20B785,2013-08-12 14:49:00,
2013-08-12 10:50:00,73.4,63.8,30.01,SW,219,1.0,2.0,72,0.00,,,0.00,WeatherCatV1.20B785,2013-08-12 14:50:00,
2013-08-12 10:54:00,73.3,62.9,30.00,WNW,288,0.0,2.0,70,0.00,,,0.00,WeatherCatV1.20B785,2013-08-12 14:54:00,
2013-08-12 10:55:00,73.2,63.6,30.00,West,267,1.0,1.0,72,0.00,,,0.00,WeatherCatV1.20B785,2013-08-12 14:55:00,
2013-08-12 10:59:00,73.3,64.9,30.00,NE,40,1.0,1.0,75,0.00,,,0.00,WeatherCatV1.20B785,2013-08-12 14:59:00,
2013-08-12 11:00:00,73.3,64.1,30.00,WNW,303,1.0,1.0,73,0.00,,,0.00,WeatherCatV1.20B785,2013-08-12 15:00:00,
2013-08-12 11:04:00,73.4,63.4,30.00,SW,222,1.0,2.0,71,0.00,,,0.00,WeatherCatV1.20B785,2013-08-12 15:04:00,
2013-08-12 11:05:00,73.5,63.9,30.00,SW,222,1.0,2.0,72,0.00,,,0.00,WeatherCatV1.20B785,2013-08-12 15:05:00,
2013-08-12 11:09:00,73.7,64.5,30.00,SSE,155,1.0,1.0,73,0.00,,,0.00,WeatherCatV1.20B785,2013-08-12 15:09:00,
2013-08-12 11:10:00,73.7,64.1,30.00,SSW,202,1.0,1.0,72,0.00,,,0.00,WeatherCatV1.20B785,2013-08-12 15:10:00,
2013-08-12 11:14:00,73.9,64.3,30.00,SW,214,4.0,4.0,72,0.00,,,0.00,WeatherCatV1.20B785,2013-08-12 15:14:00,
2013-08-12 11:15:00,73.8,63.8,30.00,SSW,204,1.0,2.0,71,0.00,,,0.00,WeatherCatV1.20B785,2013-08-12 15:15:00,
2013-08-12 11:19:00,73.9,63.9,30.00,SSW,199,2.0,3.0,71,0.00,,,0.00,WeatherCatV1.20B785,2013-08-12 15:19:00,
2013-08-12 11:20:00,74.0,64.0,30.00,SSW,204,1.0,3.0,71,0.00,,,0.00,WeatherCatV1.20B785,2013-08-12 15:20:00,
2013-08-12 11:24:00,74.4,64.8,30.00,SSE,153,0.0,1.0,72,0.00,,,0.00,WeatherCatV1.20B785,2013-08-12 15:24:00,
2013-08-12 11:25:00,74.4,64.4,30.00,South,182,1.0,5.0,71,0.00,,,0.00,WeatherCatV1.20B785,2013-08-12 15:25:00,
2013-08-12 11:29:00,74.4,64.8,30.00,West,264,2.0,2.0,72,0.00,,,0.00,WeatherCatV1.20B785,2013-08-12 15:29:00,
2013-08-12 11:30:00,74.3,64.3,30.00,SW,227,1.0,5.0,71,0.00,,,0.00,WeatherCatV1.20B785,2013-08-12 15:30:00,
2013-08-12 11:34:00,73.9,64.7,30.00,WSW,245,1.0,1.0,73,0.00,,,0.00,WeatherCatV1.20B785,2013-08-12 15:34:00,
2013-08-12 11:35:00,73.9,65.1,30.00,WSW,246,1.0,1.0,74,0.00,,,0.00,WeatherCatV1.20B785,2013-08-12 15:35:00,
2013-08-12 11:39:00,74.1,65.7,30.00,SW,227,0.0,1.0,75,0.00,,,0.00,WeatherCatV1.20B785,2013-08-12 15:39:00,
2013-08-12 11:40:00,74.3,66.2,30.00,SW,231,0.0,2.0,76,0.00,,,0.00,WeatherCatV1.20B785,2013-08-12 15:40:00,
2013-08-12 11:44:00,74.2,65.0,29.99,West,264,0.0,0.0,73,0.00,,,0.00,WeatherCatV1.20B785,2013-08-12 15:44:00,
2013-08-12 11:45:00,74.2,65.0,29.99,WSW,250,0.0,0.0,73,0.00,,,0.00,WeatherCatV1.20B785,2013-08-12 15:45:00,
2013-08-12 11:49:00,74.2,65.0,29.99,SSE,155,1.0,5.0,73,0.00,,,0.00,WeatherCatV1.20B785,2013-08-12 15:49:00,
2013-08-12 11:50:00,74.1,64.5,29.99,SW,227,1.0,1.0,72,0.00,,,0.00,WeatherCatV1.20B785,2013-08-12 15:50:00,
2013-08-12 11:54:00,73.7,64.1,29.99,South,176,1.0,3.0,72,0.00,,,0.00,WeatherCatV1.20B785,2013-08-12 15:54:00,
2013-08-12 11:55:00,73.6,64.0,29.99,WSW,247,1.0,2.0,72,0.00,,,0.00,WeatherCatV1.20B785,2013-08-12 15:55:00,
2013-08-12 11:59:00,73.5,65.1,29.99,WNW,293,4.0,4.0,75,0.00,,,0.00,WeatherCatV1.20B785,2013-08-12 15:59:00,
2013-08-12 12:00:00,73.3,64.5,29.99,WSW,246,1.0,1.0,74,0.00,,,0.00,WeatherCatV1.20B785,2013-08-12 16:00:00,
2013-08-12 12:04:00,73.1,64.3,29.99,WNW,293,2.0,3.0,74,0.00,,,0.00,WeatherCatV1.20B785,2013-08-12 16:04:00,
2013-08-12 12:05:00,73.1,64.3,29.99,West,269,1.0,3.0,74,0.00,,,0.00,WeatherCatV1.20B785,2013-08-12 16:05:00,
2013-08-12 12:09:00,72.9,64.9,29.99,WNW,283,0.0,1.0,76,0.00,,,0.00,WeatherCatV1.20B785,2013-08-12 16:09:00,
2013-08-12 12:10:00,72.8,64.8,29.99,West,278,0.0,1.0,76,0.00,,,0.00,WeatherCatV1.20B785,2013-08-12 16:10:00,
2013-08-12 12:14:00,72.6,64.6,29.99,West,274,0.0,2.0,76,0.00,,,0.00,WeatherCatV1.20B785,2013-08-12 16:14:00,
2013-08-12 12:15:00,72.6,64.6,29.99,West,275,0.0,4.0,76,0.00,,,0.00,WeatherCatV1.20B785,2013-08-12 16:15:00,
2013-08-12 12:19:00,72.2,64.2,29.99,West,262,3.0,5.0,76,0.00,,,0.00,WeatherCatV1.20B785,2013-08-12 16:19:00,
2013-08-12 12:20:00,72.0,64.0,29.99,West,273,1.0,2.0,76,0.00,,,0.00,WeatherCatV1.20B785,2013-08-12 16:20:00,
2013-08-12 12:24:00,71.8,64.2,30.00,West,260,2.0,3.0,77,0.00,,,0.00,WeatherCatV1.20B785,2013-08-12 16:24:00,
2013-08-12 12:25:00,71.7,64.1,30.00,West,266,2.0,4.0,77,0.00,,,0.00,WeatherCatV1.20B785,2013-08-12 16:25:00,
2013-08-12 12:29:00,71.5,64.3,30.00,WSW,256,1.0,1.0,78,0.00,,,0.00,WeatherCatV1.20B785,2013-08-12 16:29:00,
2013-08-12 12:30:00,71.2,64.7,30.00,WSW,258,2.0,4.0,80,0.00,,,0.00,WeatherCatV1.20B785,2013-08-12 16:30:00,
2013-08-12 12:34:00,70.6,63.8,30.00,SW,233,1.0,7.0,79,0.00,,,0.00,WeatherCatV1.20B785,2013-08-12 16:34:00,
2013-08-12 12:35:00,70.0,63.5,30.01,WSW,254,2.0,5.0,80,0.00,,,0.00,WeatherCatV1.20B785,2013-08-12 16:35:00,
2013-08-12 12:39:00,69.5,64.1,30.01,West,278,3.0,4.0,83,0.00,,,0.01,WeatherCatV1.20B785,2013-08-12 16:39:00,
2013-08-12 12:40:00,69.1,63.7,30.01,WNW,282,2.0,2.0,83,0.00,,,0.00,WeatherCatV1.20B785,2013-08-12 16:40:00,
2013-08-12 12:44:00,68.6,63.9,30.01,West,263,3.0,3.0,85,0.00,,,0.01,WeatherCatV1.20B785,2013-08-12 16:44:00,
2013-08-12 12:45:00,68.2,63.5,30.01,West,280,1.0,0.0,85,0.06,,,0.00,WeatherCatV1.20B785,2013-08-12 16:45:00,
2013-08-12 12:49:00,67.9,63.5,30.01,North,0,0.0,2.0,86,0.06,,,0.02,WeatherCatV1.20B785,2013-08-12 16:49:00,
2013-08-12 12:50:00,67.7,63.7,30.01,NW,322,1.0,1.0,87,0.06,,,0.00,WeatherCatV1.20B785,2013-08-12 16:50:00,
2013-08-12 12:54:00,67.4,63.1,30.01,WSW,243,2.0,3.0,86,0.06,,,0.02,WeatherCatV1.20B785,2013-08-12 16:54:00,
2013-08-12 12:55:00,67.1,63.1,30.01,WNW,287,0.0,1.0,87,0.06,,,0.00,WeatherCatV1.20B785,2013-08-12 16:55:00,
2013-08-12 12:59:00,66.9,62.9,30.02,West,264,0.0,1.0,87,0.44,,,0.04,WeatherCatV1.20B785,2013-08-12 16:59:00,
2013-08-12 13:00:00,66.8,63.1,30.02,West,276,0.0,1.0,88,0.44,,,0.00,WeatherCatV1.20B785,2013-08-12 17:00:00,
2013-08-12 13:04:00,66.6,62.9,30.02,NE,47,0.0,0.0,88,0.17,,,0.05,WeatherCatV1.20B785,2013-08-12 17:04:00,
2013-08-12 13:05:00,66.5,62.8,30.01,NNW,344,0.0,0.0,88,0.14,,,0.00,WeatherCatV1.20B785,2013-08-12 17:05:00,
2013-08-12 13:09:00,66.4,63.0,30.02,NE,47,0.0,0.0,89,0.12,,,0.06,WeatherCatV1.20B785,2013-08-12 17:09:00,
2013-08-12 13:10:00,66.3,63.0,30.02,NNE,29,0.0,0.0,89,0.12,,,0.00,WeatherCatV1.20B785,2013-08-12 17:10:00,
2013-08-12 13:14:00,66.3,63.0,30.01,SSW,212,0.0,4.0,89,0.07,,,0.06,WeatherCatV1.20B785,2013-08-12 17:14:00,
2013-08-12 13:15:00,66.3,63.0,30.01,WNW,286,0.0,1.0,89,0.06,,,0.00,WeatherCatV1.20B785,2013-08-12 17:15:00,
2013-08-12 13:19:00,66.2,62.9,30.01,West,260,1.0,2.0,89,0.04,,,0.06,WeatherCatV1.20B785,2013-08-12 17:19:00,
2013-08-12 13:20:00,66.2,62.8,30.01,West,264,1.0,3.0,89,0.04,,,0.00,WeatherCatV1.20B785,2013-08-12 17:20:00,
2013-08-12 13:24:00,66.0,62.3,30.01,WSW,257,0.0,4.0,88,0.00,,,0.06,WeatherCatV1.20B785,2013-08-12 17:24:00,
2013-08-12 13:25:00,66.0,62.3,30.01,WSW,240,1.0,4.0,88,0.00,,,0.00,WeatherCatV1.20B785,2013-08-12 17:25:00,
2013-08-12 13:29:00,65.8,62.1,30.01,SW,229,2.0,8.0,88,0.00,,,0.06,WeatherCatV1.20B785,2013-08-12 17:29:00,
2013-08-12 13:30:00,65.8,62.1,30.00,WSW,251,2.0,5.0,88,0.00,,,0.00,WeatherCatV1.20B785,2013-08-12 17:30:00,
2013-08-12 13:34:00,65.7,62.0,30.00,SSW,213,0.0,2.0,88,0.00,,,0.06,WeatherCatV1.20B785,2013-08-12 17:34:00,
2013-08-12 13:35:00,65.6,62.0,30.01,West,261,2.0,5.0,88,0.00,,,0.00,WeatherCatV1.20B785,2013-08-12 17:35:00,
2013-08-12 13:39:00,65.4,61.8,30.01,WSW,248,0.0,2.0,88,0.00,,,0.06,WeatherCatV1.20B785,2013-08-12 17:39:00,
2013-08-12 13:40:00,65.4,61.8,30.00,WSW,249,1.0,0.0,88,0.00,,,0.00,WeatherCatV1.20B785,2013-08-12 17:40:00,
2013-08-12 13:44:00,65.3,61.7,30.00,South,177,2.0,3.0,88,0.00,,,0.06,WeatherCatV1.20B785,2013-08-12 17:44:00,
2013-08-12 13:45:00,65.3,61.7,30.00,SW,224,2.0,4.0,88,0.00,,,0.00,WeatherCatV1.20B785,2013-08-12 17:45:00,
2013-08-12 13:49:00,65.2,61.9,30.00,SSW,201,0.0,2.0,89,0.00,,,0.06,WeatherCatV1.20B785,2013-08-12 17:49:00,
2013-08-12 13:50:00,65.2,61.9,30.00,SSW,212,2.0,3.0,89,0.00,,,0.00,WeatherCatV1.20B785,2013-08-12 17:50:00,
2013-08-12 13:54:00,65.2,61.9,30.00,SW,226,3.0,5.0,89,0.00,,,0.06,WeatherCatV1.20B785,2013-08-12 17:54:00,
2013-08-12 13:55:00,65.2,61.9,30.00,SW,214,1.0,5.0,89,0.00,,,0.00,WeatherCatV1.20B785,2013-08-12 17:55:00,
2013-08-12 13:59:00,65.2,61.9,30.00,SSE,160,2.0,3.0,89,0.00,,,0.06,WeatherCatV1.20B785,2013-08-12 17:59:00,
2013-08-12 14:00:00,65.2,61.9,29.99,SSW,202,1.0,2.0,89,0.00,,,0.00,WeatherCatV1.20B785,2013-08-12 18:00:00,
2013-08-12 14:04:00,65.3,62.0,29.99,SSW,194,1.0,3.0,89,0.00,,,0.06,WeatherCatV1.20B785,2013-08-12 18:04:00,
2013-08-12 14:05:00,65.3,62.0,29.99,South,190,2.0,2.0,89,0.00,,,0.00,WeatherCatV1.20B785,2013-08-12 18:05:00,
2013-08-12 14:09:00,65.4,62.1,29.99,SSW,197,1.0,3.0,89,0.00,,,0.06,WeatherCatV1.20B785,2013-08-12 18:09:00,
2013-08-12 14:10:00,65.4,62.1,29.99,SSW,196,2.0,3.0,89,0.00,,,0.00,WeatherCatV1.20B785,2013-08-12 18:10:00,
2013-08-12 14:14:00,65.5,62.2,29.99,SSW,213,1.0,4.0,89,0.00,,,0.07,WeatherCatV1.20B785,2013-08-12 18:14:00,
2013-08-12 14:15:00,65.6,62.3,29.99,SSW,199,1.0,4.0,89,0.00,,,0.00,WeatherCatV1.20B785,2013-08-12 18:15:00,
2013-08-12 14:19:00,65.8,62.5,29.99,SE,132,0.0,1.0,89,0.00,,,0.07,WeatherCatV1.20B785,2013-08-12 18:19:00,
2013-08-12 14:20:00,65.9,62.6,29.99,SW,223,1.0,3.0,89,0.00,,,0.00,WeatherCatV1.20B785,2013-08-12 18:20:00,
2013-08-12 14:24:00,66.0,62.7,29.99,SW,229,1.0,3.0,89,0.00,,,0.07,WeatherCatV1.20B785,2013-08-12 18:24:00,
2013-08-12 14:25:00,66.2,62.8,29.99,SSW,213,1.0,1.0,89,0.00,,,0.00,WeatherCatV1.20B785,2013-08-12 18:25:00,
2013-08-12 14:29:00,66.3,63.0,29.99,SW,222,3.0,3.0,89,0.00,,,0.07,WeatherCatV1.20B785,2013-08-12 18:29:00,
2013-08-12 14:30:00,66.3,62.6,29.98,SW,218,2.0,2.0,88,0.00,,,0.00,WeatherCatV1.20B785,2013-08-12 18:30:00,
2013-08-12 14:34:00,66.4,62.7,29.98,South,182,3.0,5.0,88,0.00,,,0.07,WeatherCatV1.20B785,2013-08-12 18:34:00,
2013-08-12 14:35:00,66.4,62.7,29.98,SSW,205,2.0,4.0,88,0.00,,,0.00,WeatherCatV1.20B785,2013-08-12 18:35:00,
2013-08-12 14:39:00,66.5,62.8,29.98,SW,217,1.0,3.0,88,0.00,,,0.07,WeatherCatV1.20B785,2013-08-12 18:39:00,
2013-08-12 14:40:00,66.5,62.8,29.98,SSW,194,2.0,3.0,88,0.00,,,0.00,WeatherCatV1.20B785,2013-08-12 18:40:00,
2013-08-12 14:44:00,66.5,62.8,29.98,SW,222,0.0,1.0,88,0.00,,,0.07,WeatherCatV1.20B785,2013-08-12 18:44:00,
2013-08-12 14:45:00,66.5,62.8,29.98,SW,214,1.0,0.0,88,0.00,,,0.00,WeatherCatV1.20B785,2013-08-12 18:45:00,
2013-08-12 14:49:00,66.5,62.8,29.97,East,90,2.0,2.0,88,0.00,,,0.07,WeatherCatV1.20B785,2013-08-12 18:49:00,
2013-08-12 14:50:00,66.5,62.8,29.97,South,177,0.0,1.0,88,0.00,,,0.00,WeatherCatV1.20B785,2013-08-12 18:50:00,
2013-08-12 14:54:00,66.5,62.8,29.97,East,90,0.0,0.0,88,0.00,,,0.07,WeatherCatV1.20B785,2013-08-12 18:54:00,
2013-08-12 14:55:00,66.5,63.2,29.97,ESE,114,0.0,1.0,89,0.00,,,0.00,WeatherCatV1.20B785,2013-08-12 18:55:00,
2013-08-12 14:59:00,66.4,63.0,29.98,East,90,0.0,1.0,89,0.00,,,0.07,WeatherCatV1.20B785,2013-08-12 18:59:00,
2013-08-12 15:00:00,66.4,63.0,29.98,East,97,0.0,0.0,89,0.00,,,0.00,WeatherCatV1.20B785,2013-08-12 19:00:00,
2013-08-12 15:04:00,66.3,63.0,29.98,East,90,0.0,1.0,89,0.00,,,0.07,WeatherCatV1.20B785,2013-08-12 19:04:00,
2013-08-12 15:05:00,66.2,62.8,29.98,East,92,0.0,0.0,89,0.00,,,0.00,WeatherCatV1.20B785,2013-08-12 19:05:00,
2013-08-12 15:09:00,66.2,62.9,29.98,East,90,0.0,0.0,89,0.00,,,0.07,WeatherCatV1.20B785,2013-08-12 19:09:00,
2013-08-12 15:10:00,66.2,62.8,29.98,East,91,0.0,0.0,89,0.00,,,0.00,WeatherCatV1.20B785,2013-08-12 19:10:00,
2013-08-12 15:14:00,66.2,62.9,29.98,East,90,0.0,0.0,89,0.00,,,0.07,WeatherCatV1.20B785,2013-08-12 19:14:00,
2013-08-12 15:15:00,66.3,63.0,29.98,East,91,0.0,0.0,89,0.00,,,0.00,WeatherCatV1.20B785,2013-08-12 19:15:00,
2013-08-12 15:19:00,66.3,63.0,29.98,East,89,0.0,0.0,89,0.00,,,0.07,WeatherCatV1.20B785,2013-08-12 19:19:00,
2013-08-12 15:20:00,66.4,63.0,29.98,East,90,0.0,1.0,89,0.00,,,0.00,WeatherCatV1.20B785,2013-08-12 19:20:00,
2013-08-12 15:24:00,66.3,63.0,29.99,ENE,67,0.0,1.0,89,0.00,,,0.07,WeatherCatV1.20B785,2013-08-12 19:24:00,
2013-08-12 15:25:00,66.3,63.0,29.98,ENE,75,0.0,0.0,89,0.00,,,0.00,WeatherCatV1.20B785,2013-08-12 19:25:00,
2013-08-12 15:29:00,66.4,63.0,29.98,WNW,285,1.0,1.0,89,0.00,,,0.07,WeatherCatV1.20B785,2013-08-12 19:29:00,
2013-08-12 15:30:00,66.3,63.0,29.98,NNE,13,0.0,0.0,89,0.00,,,0.00,WeatherCatV1.20B785,2013-08-12 19:30:00,
2013-08-12 15:34:00,66.4,63.0,29.98,SSE,151,1.0,2.0,89,0.00,,,0.07,WeatherCatV1.20B785,2013-08-12 19:34:00,
2013-08-12 15:35:00,66.4,63.0,29.98,East,85,0.0,2.0,89,0.00,,,0.00,WeatherCatV1.20B785,2013-08-12 19:35:00,
2013-08-12 15:39:00,66.4,63.0,29.98,SSW,201,0.0,0.0,89,0.00,,,0.08,WeatherCatV1.20B785,2013-08-12 19:39:00,
2013-08-12 15:40:00,66.4,63.0,29.97,South,171,1.0,0.0,89,0.00,,,0.00,WeatherCatV1.20B785,2013-08-12 19:40:00,
2013-08-12 15:44:00,66.4,63.0,29.97,SW,218,1.0,3.0,89,0.00,,,0.08,WeatherCatV1.20B785,2013-08-12 19:44:00,
2013-08-12 15:45:00,66.4,63.0,29.97,SSW,195,1.0,4.0,89,0.00,,,0.00,WeatherCatV1.20B785,2013-08-12 19:45:00,
2013-08-12 15:49:00,66.4,62.7,29.97,WSW,248,1.0,7.0,88,0.00,,,0.08,WeatherCatV1.20B785,2013-08-12 19:49:00,
2013-08-12 15:50:00,66.4,62.7,29.97,SSW,207,1.0,5.0,88,0.00,,,0.00,WeatherCatV1.20B785,2013-08-12 19:50:00,
2013-08-12 15:54:00,66.3,62.6,29.96,SSE,150,1.0,3.0,88,0.00,,,0.08,WeatherCatV1.20B785,2013-08-12 19:54:00,
2013-08-12 15:55:00,66.3,62.6,29.96,South,181,2.0,2.0,88,0.00,,,0.00,WeatherCatV1.20B785,2013-08-12 19:55:00,
2013-08-12 15:59:00,66.3,62.6,29.96,SSE,165,2.0,2.0,88,0.00,,,0.08,WeatherCatV1.20B785,2013-08-12 19:59:00,
2013-08-12 16:00:00,66.3,63.0,29.96,South,175,1.0,2.0,89,0.00,,,0.00,WeatherCatV1.20B785,2013-08-12 20:00:00,
2013-08-12 16:04:00,66.2,62.9,29.96,SSW,195,0.0,0.0,89,0.00,,,0.08,WeatherCatV1.20B785,2013-08-12 20:04:00,
2013-08-12 16:05:00,66.2,62.8,29.96,South,188,0.0,1.0,89,0.00,,,0.00,WeatherCatV1.20B785,2013-08-12 20:05:00,
2013-08-12 16:09:00,66.2,62.9,29.96,SSW,194,0.0,0.0,89,0.00,,,0.08,WeatherCatV1.20B785,2013-08-12 20:09:00,
2013-08-12 16:10:00,66.0,62.7,29.96,SSW,193,0.0,0.0,89,0.00,,,0.00,WeatherCatV1.20B785,2013-08-12 20:10:00,
2013-08-12 16:14:00,65.9,62.6,29.96,ESE,115,0.0,0.0,89,0.00,,,0.08,WeatherCatV1.20B785,2013-08-12 20:14:00,
2013-08-12 16:15:00,65.8,62.5,29.96,SE,137,0.0,0.0,89,0.00,,,0.00,WeatherCatV1.20B785,2013-08-12 20:15:00,
2013-08-12 16:19:00,65.9,62.6,29.96,ESE,118,0.0,1.0,89,0.00,,,0.08,WeatherCatV1.20B785,2013-08-12 20:19:00,
2013-08-12 16:20:00,65.8,62.5,29.95,SE,125,0.0,1.0,89,0.00,,,0.00,WeatherCatV1.20B785,2013-08-12 20:20:00,
2013-08-12 16:24:00,65.8,62.5,29.95,East,79,0.0,1.0,89,0.00,,,0.08,WeatherCatV1.20B785,2013-08-12 20:24:00,
2013-08-12 16:25:00,65.8,62.5,29.95,East,97,0.0,0.0,89,0.00,,,0.00,WeatherCatV1.20B785,2013-08-12 20:25:00,
2013-08-12 16:29:00,65.9,62.6,29.95,East,79,0.0,0.0,89,0.00,,,0.08,WeatherCatV1.20B785,2013-08-12 20:29:00,
2013-08-12 16:30:00,65.9,62.6,29.95,East,84,0.0,0.0,89,0.00,,,0.00,WeatherCatV1.20B785,2013-08-12 20:30:00,
2013-08-12 16:34:00,66.0,63.0,29.95,East,79,0.0,1.0,90,0.00,,,0.08,WeatherCatV1.20B785,2013-08-12 20:34:00,
2013-08-12 16:35:00,66.1,63.1,29.95,East,81,0.0,0.0,90,0.00,,,0.00,WeatherCatV1.20B785,2013-08-12 20:35:00,
2013-08-12 16:39:00,66.1,63.1,29.94,East,82,0.0,1.0,90,0.00,,,0.08,WeatherCatV1.20B785,2013-08-12 20:39:00,
2013-08-12 16:40:00,66.1,63.1,29.94,East,82,0.0,0.0,90,0.00,,,0.00,WeatherCatV1.20B785,2013-08-12 20:40:00,
2013-08-12 16:44:00,66.2,63.2,29.95,East,82,0.0,0.0,90,0.00,,,0.08,WeatherCatV1.20B785,2013-08-12 20:44:00,
2013-08-12 16:45:00,66.2,63.2,29.95,East,82,0.0,0.0,90,0.00,,,0.00,WeatherCatV1.20B785,2013-08-12 20:45:00,
2013-08-12 16:49:00,66.3,63.3,29.95,East,81,0.0,0.0,90,0.00,,,0.08,WeatherCatV1.20B785,2013-08-12 20:49:00,
2013-08-12 16:50:00,66.3,63.3,29.95,East,82,0.0,0.0,90,0.00,,,0.00,WeatherCatV1.20B785,2013-08-12 20:50:00,
2013-08-12 16:54:00,66.4,63.4,29.95,East,82,0.0,0.0,90,0.00,,,0.08,WeatherCatV1.20B785,2013-08-12 20:54:00,
2013-08-12 16:55:00,66.5,63.5,29.95,East,82,0.0,1.0,90,0.00,,,0.00,WeatherCatV1.20B785,2013-08-12 20:55:00,
2013-08-12 16:59:00,66.7,63.7,29.95,North,5,0.0,1.0,90,0.00,,,0.08,WeatherCatV1.20B785,2013-08-12 20:59:00,
2013-08-12 17:00:00,66.7,63.7,29.95,NE,54,0.0,1.0,90,0.00,,,0.00,WeatherCatV1.20B785,2013-08-12 21:00:00,
2013-08-12 17:05:00,66.6,63.2,29.95,North,6,0.0,0.0,89,0.00,,,0.09,WeatherCatV1.20B785,2013-08-12 21:05:00,
2013-08-12 17:10:00,66.8,63.5,29.94,North,6,0.0,0.0,89,0.00,,,0.09,WeatherCatV1.20B785,2013-08-12 21:10:00,
2013-08-12 17:15:00,67.0,63.6,29.94,North,6,0.0,0.0,89,0.00,,,0.09,WeatherCatV1.20B785,2013-08-12 21:15:00,
2013-08-12 17:20:00,67.1,63.7,29.94,North,6,0.0,1.0,89,0.00,,,0.09,WeatherCatV1.20B785,2013-08-12 21:20:00,
2013-08-12 17:25:00,67.1,63.7,29.94,North,6,0.0,0.0,89,0.00,,,0.09,WeatherCatV1.20B785,2013-08-12 21:25:00,
2013-08-12 17:30:00,67.1,63.7,29.94,North,6,0.0,0.0,89,0.00,,,0.09,WeatherCatV1.20B785,2013-08-12 21:30:00,
2013-08-12 17:35:00,66.9,63.5,29.94,North,6,0.0,0.0,89,0.00,,,0.09,WeatherCatV1.20B785,2013-08-12 21:35:00,
2013-08-12 17:40:00,66.9,63.9,29.94,North,6,0.0,0.0,90,0.00,,,0.09,WeatherCatV1.20B785,2013-08-12 21:40:00,
2013-08-12 17:45:00,66.9,63.9,29.94,North,6,0.0,0.0,90,0.00,,,0.09,WeatherCatV1.20B785,2013-08-12 21:45:00,
2013-08-12 17:50:00,66.8,63.8,29.94,North,6,0.0,0.0,90,0.00,,,0.09,WeatherCatV1.20B785,2013-08-12 21:50:00,
2013-08-12 17:55:00,66.8,63.8,29.94,North,6,0.0,0.0,90,0.00,,,0.09,WeatherCatV1.20B785,2013-08-12 21:55:00,
2013-08-12 18:00:00,66.8,63.8,29.94,SW,231,1.0,1.0,90,0.00,,,0.09,WeatherCatV1.20B785,2013-08-12 22:00:00,
2013-08-12 18:05:00,66.8,63.8,29.94,SW,229,0.0,0.0,90,0.00,,,0.09,WeatherCatV1.20B785,2013-08-12 22:05:00,
2013-08-12 18:10:00,66.8,63.8,29.94,SW,231,0.0,0.0,90,0.00,,,0.09,WeatherCatV1.20B785,2013-08-12 22:10:00,
2013-08-12 18:15:00,66.7,63.7,29.94,SW,231,0.0,0.0,90,0.00,,,0.09,WeatherCatV1.20B785,2013-08-12 22:15:00,
2013-08-12 18:20:00,66.7,63.7,29.93,SW,229,0.0,0.0,90,0.00,,,0.09,WeatherCatV1.20B785,2013-08-12 22:20:00,
2013-08-12 18:25:00,66.7,63.7,29.93,SW,231,0.0,0.0,90,0.00,,,0.09,WeatherCatV1.20B785,2013-08-12 22:25:00,
2013-08-12 18:30:00,66.7,63.7,29.93,SW,231,0.0,0.0,90,0.00,,,0.09,WeatherCatV1.20B785,2013-08-12 22:30:00,
2013-08-12 18:35:00,66.7,63.7,29.93,SW,231,0.0,0.0,90,0.00,,,0.09,WeatherCatV1.20B785,2013-08-12 22:35:00,
2013-08-12 18:40:00,66.8,63.8,29.93,SW,231,0.0,0.0,90,0.00,,,0.09,WeatherCatV1.20B785,2013-08-12 22:40:00,
2013-08-12 18:45:00,66.8,63.8,29.92,SW,229,0.0,0.0,90,0.00,,,0.09,WeatherCatV1.20B785,2013-08-12 22:45:00,
2013-08-12 18:50:00,66.8,63.8,29.91,SW,231,0.0,0.0,90,0.00,,,0.09,WeatherCatV1.20B785,2013-08-12 22:50:00,
2013-08-12 18:55:00,67.1,64.1,29.91,SW,231,0.0,1.0,90,0.00,,,0.09,WeatherCatV1.20B785,2013-08-12 22:55:00,
2013-08-12 19:00:00,67.0,64.0,29.91,East,83,1.0,1.0,90,0.00,,,0.09,WeatherCatV1.20B785,2013-08-12 23:00:00,
2013-08-12 19:05:00,66.9,63.9,29.91,East,90,0.0,1.0,90,0.00,,,0.09,WeatherCatV1.20B785,2013-08-12 23:05:00,
2013-08-12 19:10:00,67.0,64.0,29.92,ESE,120,0.0,0.0,90,0.00,,,0.09,WeatherCatV1.20B785,2013-08-12 23:10:00,
2013-08-12 19:15:00,66.9,63.9,29.92,ESE,120,0.0,0.0,90,0.00,,,0.09,WeatherCatV1.20B785,2013-08-12 23:15:00,
2013-08-12 19:20:00,67.0,64.0,29.92,ESE,120,0.0,0.0,90,0.00,,,0.09,WeatherCatV1.20B785,2013-08-12 23:20:00,
2013-08-12 19:25:00,66.9,63.9,29.92,ESE,120,0.0,0.0,90,0.00,,,0.09,WeatherCatV1.20B785,2013-08-12 23:25:00,
2013-08-12 19:30:00,66.6,63.6,29.91,ESE,120,0.0,0.0,90,0.00,,,0.09,WeatherCatV1.20B785,2013-08-12 23:30:00,
2013-08-12 19:35:00,66.3,63.3,29.91,ESE,120,0.0,0.0,90,0.00,,,0.09,WeatherCatV1.20B785,2013-08-12 23:35:00,
2013-08-12 19:40:00,66.1,63.1,29.90,ESE,120,0.0,0.0,90,0.00,,,0.09,WeatherCatV1.20B785,2013-08-12 23:40:00,
2013-08-12 19:45:00,65.9,62.9,29.91,ESE,120,0.0,0.0,90,0.00,,,0.09,WeatherCatV1.20B785,2013-08-12 23:45:00,
2013-08-12 19:50:00,65.8,62.8,29.90,ESE,120,0.0,0.0,90,0.00,,,0.09,WeatherCatV1.20B785,2013-08-12 23:50:00,
2013-08-12 19:55:00,65.6,62.6,29.90,ESE,120,0.0,0.0,90,0.00,,,0.09,WeatherCatV1.20B785,2013-08-12 23:55:00,
2013-08-12 20:00:00,65.5,62.5,29.90,ESE,122,0.0,0.0,90,0.00,,,0.09,WeatherCatV1.20B785,2013-08-13 00:00:00,
2013-08-12 20:05:00,65.3,62.3,29.90,ESE,121,0.0,1.0,90,0.00,,,0.00,WeatherCatV1.20B785,2013-08-13 00:05:00,
2013-08-12 20:06:00,65.3,62.3,29.90,SSE,155,1.0,1.0,90,0.00,,,0.09,WeatherCatV1.20B785,2013-08-13 00:06:00,
2013-08-12 20:10:00,65.2,62.5,29.90,South,175,1.0,2.0,91,0.00,,,0.00,WeatherCatV1.20B785,2013-08-13 00:10:00,
2013-08-12 20:11:00,65.1,62.4,29.90,SSW,208,2.0,2.0,91,0.00,,,0.09,WeatherCatV1.20B785,2013-08-13 00:11:00,
2013-08-12 20:15:00,65.0,62.3,29.90,South,190,1.0,2.0,91,0.00,,,0.00,WeatherCatV1.20B785,2013-08-13 00:15:00,
2013-08-12 20:16:00,65.0,62.3,29.90,SSW,210,1.0,2.0,91,0.00,,,0.09,WeatherCatV1.20B785,2013-08-13 00:16:00,
2013-08-12 20:20:00,64.8,62.1,29.90,SSW,195,1.0,1.0,91,0.00,,,0.00,WeatherCatV1.20B785,2013-08-13 00:20:00,
2013-08-12 20:21:00,64.9,62.2,29.90,SSW,193,0.0,0.0,91,0.00,,,0.09,WeatherCatV1.20B785,2013-08-13 00:21:00,
2013-08-12 20:25:00,64.7,62.0,29.90,SSW,193,0.0,0.0,91,0.00,,,0.00,WeatherCatV1.20B785,2013-08-13 00:25:00,
2013-08-12 20:26:00,64.6,61.9,29.90,SSW,193,0.0,0.0,91,0.00,,,0.09,WeatherCatV1.20B785,2013-08-13 00:26:00,
2013-08-12 20:30:00,64.4,61.7,29.90,SSW,193,0.0,0.0,91,0.00,,,0.00,WeatherCatV1.20B785,2013-08-13 00:30:00,
2013-08-12 20:31:00,64.3,61.6,29.90,SSW,193,0.0,0.0,91,0.00,,,0.09,WeatherCatV1.20B785,2013-08-13 00:31:00,
2013-08-12 20:35:00,64.1,61.4,29.90,SSW,193,0.0,0.0,91,0.00,,,0.00,WeatherCatV1.20B785,2013-08-13 00:35:00,
2013-08-12 20:36:00,64.1,61.4,29.90,SSW,193,0.0,0.0,91,0.00,,,0.09,WeatherCatV1.20B785,2013-08-13 00:36:00,
2013-08-12 20:40:00,64.0,61.3,29.90,SSW,197,0.0,2.0,91,0.00,,,0.00,WeatherCatV1.20B785,2013-08-13 00:40:00,
2013-08-12 20:41:00,64.0,61.3,29.90,SSW,203,1.0,1.0,91,0.00,,,0.09,WeatherCatV1.20B785,2013-08-13 00:41:00,
2013-08-12 20:45:00,64.0,61.3,29.90,SSW,205,1.0,3.0,91,0.00,,,0.00,WeatherCatV1.20B785,2013-08-13 00:45:00,
2013-08-12 20:46:00,64.0,61.3,29.90,SSW,203,1.0,3.0,91,0.00,,,0.09,WeatherCatV1.20B785,2013-08-13 00:46:00,
2013-08-12 20:50:00,63.9,61.2,29.90,SSW,200,2.0,2.0,91,0.00,,,0.00,WeatherCatV1.20B785,2013-08-13 00:50:00,
2013-08-12 20:51:00,63.9,61.2,29.90,South,170,2.0,2.0,91,0.00,,,0.09,WeatherCatV1.20B785,2013-08-13 00:51:00,
2013-08-12 20:55:00,63.9,61.2,29.90,South,173,1.0,1.0,91,0.00,,,0.00,WeatherCatV1.20B785,2013-08-13 00:55:00,
2013-08-12 20:56:00,63.9,61.2,29.90,SSE,163,0.0,1.0,91,0.00,,,0.09,WeatherCatV1.20B785,2013-08-13 00:56:00,
2013-08-12 21:00:00,63.7,61.0,29.90,SSE,166,1.0,0.0,91,0.00,,,0.00,WeatherCatV1.20B785,2013-08-13 01:00:00,
2013-08-12 21:01:00,63.7,61.0,29.90,SSE,163,0.0,1.0,91,0.00,,,0.09,WeatherCatV1.20B785,2013-08-13 01:01:00,
2013-08-12 21:05:00,63.5,60.8,29.90,SSE,164,0.0,1.0,91,0.00,,,0.00,WeatherCatV1.20B785,2013-08-13 01:05:00,
2013-08-12 21:06:00,63.5,60.8,29.90,SSE,163,0.0,1.0,91,0.00,,,0.09,WeatherCatV1.20B785,2013-08-13 01:06:00,
2013-08-12 21:10:00,63.4,60.7,29.90,SSE,163,0.0,0.0,91,0.00,,,0.00,WeatherCatV1.20B785,2013-08-13 01:10:00,
2013-08-12 21:11:00,63.4,60.7,29.90,SSE,163,0.0,0.0,91,0.00,,,0.09,WeatherCatV1.20B785,2013-08-13 01:11:00,
2013-08-12 21:15:00,63.2,60.5,29.90,SSE,163,0.0,0.0,91,0.00,,,0.00,WeatherCatV1.20B785,2013-08-13 01:15:00,
2013-08-12 21:16:00,63.3,60.6,29.90,SSE,163,0.0,0.0,91,0.00,,,0.09,WeatherCatV1.20B785,2013-08-13 01:16:00,
2013-08-12 21:20:00,63.0,60.3,29.90,SSE,163,0.0,0.0,91,0.00,,,0.00,WeatherCatV1.20B785,2013-08-13 01:20:00,
2013-08-12 21:21:00,63.0,60.3,29.90,SSE,163,0.0,0.0,91,0.00,,,0.09,WeatherCatV1.20B785,2013-08-13 01:21:00,
2013-08-12 21:25:00,62.8,60.1,29.90,SSE,163,0.0,0.0,91,0.00,,,0.00,WeatherCatV1.20B785,2013-08-13 01:25:00,
2013-08-12 21:26:00,62.8,60.1,29.90,SSE,164,0.0,0.0,91,0.00,,,0.09,WeatherCatV1.20B785,2013-08-13 01:26:00,
2013-08-12 21:30:00,62.8,60.4,29.90,SSE,163,0.0,0.0,92,0.00,,,0.00,WeatherCatV1.20B785,2013-08-13 01:30:00,
2013-08-12 21:31:00,62.8,60.4,29.90,SSE,163,0.0,0.0,92,0.00,,,0.09,WeatherCatV1.20B785,2013-08-13 01:31:00,
2013-08-12 21:35:00,62.8,60.4,29.90,SSE,163,0.0,0.0,92,0.00,,,0.00,WeatherCatV1.20B785,2013-08-13 01:35:00,
2013-08-12 21:36:00,62.8,60.4,29.90,SSE,163,0.0,1.0,92,0.00,,,0.09,WeatherCatV1.20B785,2013-08-13 01:36:00,
2013-08-12 21:40:00,63.0,60.6,29.90,SSE,163,0.0,1.0,92,0.00,,,0.00,WeatherCatV1.20B785,2013-08-13 01:40:00,
2013-08-12 21:41:00,63.0,60.6,29.89,SSE,162,1.0,1.0,92,0.00,,,0.09,WeatherCatV1.20B785,2013-08-13 01:41:00,
2013-08-12 21:45:00,63.1,60.7,29.89,SSE,162,1.0,2.0,92,0.00,,,0.00,WeatherCatV1.20B785,2013-08-13 01:45:00,
2013-08-12 21:46:00,63.2,60.8,29.89,SSE,162,2.0,2.0,92,0.00,,,0.09,WeatherCatV1.20B785,2013-08-13 01:46:00,
2013-08-12 21:50:00,63.3,60.9,29.89,SSE,160,2.0,2.0,92,0.00,,,0.00,WeatherCatV1.20B785,2013-08-13 01:50:00,
2013-08-12 21:51:00,63.3,60.9,29.89,SSE,158,1.0,2.0,92,0.00,,,0.09,WeatherCatV1.20B785,2013-08-13 01:51:00,
2013-08-12 21:55:00,63.5,61.1,29.89,SSE,159,1.0,2.0,92,0.00,,,0.00,WeatherCatV1.20B785,2013-08-13 01:55:00,
2013-08-12 21:56:00,63.5,61.1,29.89,SSE,156,1.0,2.0,92,0.00,,,0.09,WeatherCatV1.20B785,2013-08-13 01:56:00,
2013-08-12 22:00:00,63.6,61.2,29.89,SSE,157,1.0,1.0,92,0.00,,,0.00,WeatherCatV1.20B785,2013-08-13 02:00:00,
2013-08-12 22:01:00,63.6,61.2,29.89,SSE,156,0.0,0.0,92,0.00,,,0.09,WeatherCatV1.20B785,2013-08-13 02:01:00,
2013-08-12 22:05:00,63.3,60.6,29.89,SSE,156,1.0,0.0,91,0.00,,,0.00,WeatherCatV1.20B785,2013-08-13 02:05:00,
2013-08-12 22:06:00,63.3,60.9,29.89,SSE,155,0.0,1.0,92,0.00,,,0.09,WeatherCatV1.20B785,2013-08-13 02:06:00,
2013-08-12 22:10:00,63.3,60.9,29.89,SSE,155,0.0,0.0,92,0.00,,,0.00,WeatherCatV1.20B785,2013-08-13 02:10:00,
2013-08-12 22:11:00,63.3,60.9,29.89,SSE,155,0.0,0.0,92,0.00,,,0.09,WeatherCatV1.20B785,2013-08-13 02:11:00,
2013-08-12 22:15:00,63.3,60.9,29.88,SSE,155,0.0,0.0,92,0.00,,,0.00,WeatherCatV1.20B785,2013-08-13 02:15:00,
2013-08-12 22:16:00,63.3,60.9,29.88,SSE,155,0.0,0.0,92,0.00,,,0.09,WeatherCatV1.20B785,2013-08-13 02:16:00,
2013-08-12 22:20:00,63.3,60.9,29.88,SSE,155,0.0,0.0,92,0.00,,,0.00,WeatherCatV1.20B785,2013-08-13 02:20:00,
2013-08-12 22:21:00,63.3,60.9,29.88,SSE,155,0.0,0.0,92,0.00,,,0.09,WeatherCatV1.20B785,2013-08-13 02:21:00,
2013-08-12 22:25:00,63.2,60.8,29.88,SSE,155,0.0,1.0,92,0.00,,,0.00,WeatherCatV1.20B785,2013-08-13 02:25:00,
2013-08-12 22:26:00,63.2,60.8,29.88,SSE,155,1.0,1.0,92,0.00,,,0.09,WeatherCatV1.20B785,2013-08-13 02:26:00,
2013-08-12 22:30:00,63.2,60.8,29.88,SSE,155,0.0,0.0,92,0.00,,,0.00,WeatherCatV1.20B785,2013-08-13 02:30:00,
2013-08-12 22:31:00,63.2,60.8,29.88,SSE,155,0.0,0.0,92,0.00,,,0.09,WeatherCatV1.20B785,2013-08-13 02:31:00,
2013-08-12 22:35:00,63.2,60.8,29.87,SSE,155,0.0,1.0,92,0.00,,,0.00,WeatherCatV1.20B785,2013-08-13 02:35:00,
2013-08-12 22:36:00,63.2,60.8,29.87,SSE,155,0.0,1.0,92,0.00,,,0.09,WeatherCatV1.20B785,2013-08-13 02:36:00,
2013-08-12 22:40:00,63.2,60.8,29.87,SSE,155,1.0,1.0,92,0.00,,,0.00,WeatherCatV1.20B785,2013-08-13 02:40:00,
2013-08-12 22:41:00,63.2,60.8,29.87,SSE,155,1.0,1.0,92,0.00,,,0.09,WeatherCatV1.20B785,2013-08-13 02:41:00,
2013-08-12 22:45:00,63.1,60.7,29.87,SSE,155,1.0,1.0,92,0.00,,,0.00,WeatherCatV1.20B785,2013-08-13 02:45:00,
2013-08-12 22:46:00,63.1,60.7,29.87,SSE,155,0.0,1.0,92,0.00,,,0.09,WeatherCatV1.20B785,2013-08-13 02:46:00,
2013-08-12 22:50:00,63.0,60.6,29.86,SSE,155,1.0,1.0,92,0.00,,,0.00,WeatherCatV1.20B785,2013-08-13 02:50:00,
2013-08-12 22:51:00,63.0,60.6,29.86,SSE,155,0.0,0.0,92,0.00,,,0.09,WeatherCatV1.20B785,2013-08-13 02:51:00,
2013-08-12 22:55:00,63.0,60.6,29.86,SSE,155,0.0,1.0,92,0.00,,,0.00,WeatherCatV1.20B785,2013-08-13 02:55:00,
2013-08-12 22:56:00,63.0,60.6,29.86,SSE,156,1.0,1.0,92,0.00,,,0.09,WeatherCatV1.20B785,2013-08-13 02:56:00,
2013-08-12 23:00:00,63.0,60.6,29.86,SSE,156,1.0,1.0,92,0.00,,,0.00,WeatherCatV1.20B785,2013-08-13 03:00:00,
2013-08-12 23:01:00,63.0,60.6,29.86,SSE,156,0.0,1.0,92,0.00,,,0.09,WeatherCatV1.20B785,2013-08-13 03:01:00,
2013-08-12 23:05:00,63.0,60.6,29.86,SSE,156,1.0,1.0,92,0.00,,,0.00,WeatherCatV1.20B785,2013-08-13 03:05:00,
2013-08-12 23:06:00,63.0,60.6,29.86,SSE,156,0.0,1.0,92,0.00,,,0.09,WeatherCatV1.20B785,2013-08-13 03:06:00,
2013-08-12 23:10:00,62.9,60.5,29.85,SSE,155,0.0,1.0,92,0.00,,,0.00,WeatherCatV1.20B785,2013-08-13 03:10:00,
2013-08-12 23:11:00,62.9,60.5,29.85,SSE,155,1.0,1.0,92,0.00,,,0.09,WeatherCatV1.20B785,2013-08-13 03:11:00,
2013-08-12 23:15:00,62.9,60.5,29.85,SSE,155,1.0,1.0,92,0.00,,,0.00,WeatherCatV1.20B785,2013-08-13 03:15:00,
2013-08-12 23:16:00,62.9,60.5,29.85,SSE,155,1.0,1.0,92,0.00,,,0.09,WeatherCatV1.20B785,2013-08-13 03:16:00,
2013-08-12 23:20:00,62.8,60.4,29.85,SSE,155,1.0,1.0,92,0.00,,,0.00,WeatherCatV1.20B785,2013-08-13 03:20:00,
2013-08-12 23:21:00,62.9,60.5,29.85,SSE,155,0.0,1.0,92,0.00,,,0.09,WeatherCatV1.20B785,2013-08-13 03:21:00,
2013-08-12 23:25:00,62.9,60.5,29.85,SSE,155,1.0,1.0,92,0.00,,,0.00,WeatherCatV1.20B785,2013-08-13 03:25:00,
2013-08-12 23:26:00,62.9,60.5,29.84,SSE,155,0.0,1.0,92,0.00,,,0.09,WeatherCatV1.20B785,2013-08-13 03:26:00,
2013-08-12 23:30:00,62.9,60.5,29.84,SSE,156,1.0,1.0,92,0.00,,,0.00,WeatherCatV1.20B785,2013-08-13 03:30:00,
2013-08-12 23:31:00,62.9,60.5,29.84,SSE,156,0.0,1.0,92,0.00,,,0.09,WeatherCatV1.20B785,2013-08-13 03:31:00,
2013-08-12 23:35:00,62.9,60.5,29.84,SSE,156,0.0,0.0,92,0.00,,,0.00,WeatherCatV1.20B785,2013-08-13 03:35:00,
2013-08-12 23:36:00,62.9,60.5,29.84,SSE,156,0.0,0.0,92,0.00,,,0.09,WeatherCatV1.20B785,2013-08-13 03:36:00,
2013-08-12 23:40:00,62.8,60.4,29.84,SSE,156,0.0,0.0,92,0.00,,,0.00,WeatherCatV1.20B785,2013-08-13 03:40:00,
2013-08-12 23:41:00,62.8,60.4,29.84,SSE,156,0.0,0.0,92,0.00,,,0.09,WeatherCatV1.20B785,2013-08-13 03:41:00,
2013-08-12 23:45:00,62.8,60.4,29.84,SSE,158,0.0,1.0,92,0.00,,,0.00,WeatherCatV1.20B785,2013-08-13 03:45:00,
2013-08-12 23:46:00,62.8,60.4,29.84,SSE,160,1.0,1.0,92,0.00,,,0.09,WeatherCatV1.20B785,2013-08-13 03:46:00,
2013-08-12 23:50:00,62.9,60.5,29.84,SSE,159,0.0,0.0,92,0.00,,,0.00,WeatherCatV1.20B785,2013-08-13 03:50:00,
2013-08-12 23:53:00,62.9,60.5,29.84,SSE,149,0.0,1.0,92,0.00,,,0.09,WeatherCatV1.20B785,2013-08-13 03:53:00,
2013-08-12 23:55:00,63.0,60.6,29.84,SSE,151,0.0,0.0,92,0.00,,,0.00,WeatherCatV1.20B785,2013-08-13 03:55:00,
2013-08-12 23:58:00,63.0,60.6,29.84,SSE,148,0.0,1.0,92,0.00,,,0.09,WeatherCatV1.20B785,2013-08-13 03:58:00,